Time,TemperatureF,DewpointF,PressureIn,WindDirection,WindDirectionDegrees,WindSpeedMPH,WindSpeedGustMPH,Humidity,HourlyPrecipIn,Conditions,Clouds,dailyrainin,SoftwareType,DateUTC
2013-05-04 00:02:00,63.3,45.4,31.02,SE,136,1.0,5.0,52,0.00,CLR,CLR,0.00,WeatherDisplay:10.37,2013-05-04 04:02:00,
2013-05-04 00:07:00,63.1,45.2,31.02,SE,142,5.0,8.0,52,0.00,CLR,CLR,0.00,WeatherDisplay:10.37,2013-05-04 04:07:00,
2013-05-04 00:12:00,63.1,45.2,31.02,SE,141,2.0,7.0,52,0.00,CLR,CLR,0.00,WeatherDisplay:10.37,2013-05-04 04:12:00,
2013-05-04 00:17:00,63.0,45.1,31.02,SE,146,3.0,8.0,52,0.00,CLR,CLR,0.00,WeatherDisplay:10.37,2013-05-04 04:17:00,
2013-05-04 00:22:00,62.9,45.5,31.02,SE,145,1.0,10.0,53,0.00,CLR,CLR,0.00,WeatherDisplay:10.37,2013-05-04 04:22:00,
2013-05-04 00:27:00,62.7,44.8,31.02,SE,141,2.0,7.0,52,0.00,CLR,CLR,0.00,WeatherDisplay:10.37,2013-05-04 04:27:00,
2013-05-04 00:32:00,62.6,44.7,31.02,SE,144,0.0,7.0,52,0.00,CLR,CLR,0.00,WeatherDisplay:10.37,2013-05-04 04:32:00,
2013-05-04 00:37:00,62.3,44.9,31.02,SE,138,0.0,5.0,53,0.00,CLR,CLR,0.00,WeatherDisplay:10.37,2013-05-04 04:37:00,
2013-05-04 00:42:00,62.1,45.2,31.02,SE,140,0.0,8.0,54,0.00,CLR,CLR,0.00,WeatherDisplay:10.37,2013-05-04 04:42:00,
2013-05-04 00:47:00,62.0,45.2,31.03,SE,139,1.0,7.0,54,0.00,CLR,CLR,0.00,WeatherDisplay:10.37,2013-05-04 04:47:00,
2013-05-04 00:52:00,62.0,44.7,31.03,SE,146,0.0,6.0,53,0.00,CLR,CLR,0.00,WeatherDisplay:10.37,2013-05-04 04:52:00,
2013-05-04 00:57:00,61.7,44.4,31.03,SSE,158,0.0,4.0,53,0.00,CLR,CLR,0.00,WeatherDisplay:10.37,2013-05-04 04:57:00,
2013-05-04 01:02:00,61.7,44.9,31.03,ESE,122,1.0,9.0,54,0.00,CLR,CLR,0.00,WeatherDisplay:10.37,2013-05-04 05:02:00,
2013-05-04 01:07:00,61.6,44.8,31.03,ESE,118,0.0,5.0,54,0.00,CLR,CLR,0.00,WeatherDisplay:10.37,2013-05-04 05:07:00,
2013-05-04 01:12:00,61.4,44.6,31.03,ESE,116,0.0,7.0,54,0.00,CLR,CLR,0.00,WeatherDisplay:10.37,2013-05-04 05:12:00,
2013-05-04 01:17:00,61.3,44.5,31.03,SE,136,1.0,9.0,54,0.00,CLR,CLR,0.00,WeatherDisplay:10.37,2013-05-04 05:17:00,
2013-05-04 01:22:00,61.2,44.4,31.03,SE,140,2.0,6.0,54,0.00,CLR,CLR,0.00,WeatherDisplay:10.37,2013-05-04 05:22:00,
2013-05-04 01:27:00,61.0,44.3,31.03,SE,131,1.0,6.0,54,0.00,CLR,CLR,0.00,WeatherDisplay:10.37,2013-05-04 05:27:00,
2013-05-04 01:32:00,60.7,44.5,31.03,SE,127,0.0,4.0,55,0.00,CLR,CLR,0.00,WeatherDisplay:10.37,2013-05-04 05:32:00,
2013-05-04 01:37:00,60.6,44.3,31.03,ESE,116,1.0,5.0,55,0.00,CLR,CLR,0.00,WeatherDisplay:10.37,2013-05-04 05:37:00,
2013-05-04 01:42:00,60.5,44.2,31.02,SE,135,1.0,7.0,55,0.00,CLR,CLR,0.00,WeatherDisplay:10.37,2013-05-04 05:42:00,
2013-05-04 01:47:00,60.4,44.2,31.02,SE,145,2.0,6.0,55,0.00,CLR,CLR,0.00,WeatherDisplay:10.37,2013-05-04 05:47:00,
2013-05-04 01:52:00,60.3,44.1,31.02,SE,142,2.0,6.0,55,0.00,CLR,CLR,0.00,WeatherDisplay:10.37,2013-05-04 05:52:00,
2013-05-04 01:57:00,60.2,44.4,31.02,SE,128,0.0,7.0,56,0.00,CLR,CLR,0.00,WeatherDisplay:10.37,2013-05-04 05:57:00,
2013-05-04 02:02:00,60.0,43.8,31.02,ESE,122,2.0,8.0,55,0.00,CLR,CLR,0.00,WeatherDisplay:10.37,2013-05-04 06:02:00,
2013-05-04 02:07:00,59.9,43.7,31.02,SE,124,0.0,7.0,55,0.00,CLR,CLR,0.00,WeatherDisplay:10.37,2013-05-04 06:07:00,
2013-05-04 02:12:00,59.8,44.0,31.01,ESE,118,1.0,5.0,56,0.00,CLR,CLR,0.00,WeatherDisplay:10.37,2013-05-04 06:12:00,
2013-05-04 02:17:00,59.5,43.8,31.01,ESE,114,0.0,6.0,56,0.00,CLR,CLR,0.00,WeatherDisplay:10.37,2013-05-04 06:17:00,
2013-05-04 02:22:00,59.4,44.1,31.01,ESE,116,0.0,6.0,57,0.00,CLR,CLR,0.00,WeatherDisplay:10.37,2013-05-04 06:22:00,
2013-05-04 02:27:00,59.2,44.0,31.01,ESE,114,0.0,5.0,57,0.00,CLR,CLR,0.00,WeatherDisplay:10.37,2013-05-04 06:27:00,
2013-05-04 02:32:00,59.0,43.8,31.01,ESE,108,2.0,7.0,57,0.00,CLR,CLR,0.00,WeatherDisplay:10.37,2013-05-04 06:32:00,
2013-05-04 02:37:00,58.8,44.1,31.01,ESE,112,0.0,5.0,58,0.00,CLR,CLR,0.00,WeatherDisplay:10.37,2013-05-04 06:37:00,
2013-05-04 02:42:00,58.7,43.9,31.01,SE,130,1.0,7.0,58,0.00,CLR,CLR,0.00,WeatherDisplay:10.37,2013-05-04 06:42:00,
2013-05-04 02:47:00,58.5,43.8,31.01,SE,125,0.0,4.0,58,0.00,CLR,CLR,0.00,WeatherDisplay:10.37,2013-05-04 06:47:00,
2013-05-04 02:52:00,58.4,44.1,31.01,ESE,119,0.0,6.0,59,0.00,CLR,CLR,0.00,WeatherDisplay:10.37,2013-05-04 06:52:00,
2013-05-04 02:57:00,58.0,43.8,31.01,SE,125,1.0,5.0,59,0.00,CLR,CLR,0.00,WeatherDisplay:10.37,2013-05-04 06:57:00,
2013-05-04 03:02:00,57.8,44.0,31.01,SE,132,0.0,6.0,60,0.00,CLR,CLR,0.00,WeatherDisplay:10.37,2013-05-04 07:02:00,
2013-05-04 03:07:00,57.7,43.9,31.01,SE,137,1.0,6.0,60,0.00,CLR,CLR,0.00,WeatherDisplay:10.37,2013-05-04 07:07:00,
2013-05-04 03:12:00,57.6,43.8,31.01,SE,132,1.0,7.0,60,0.00,CLR,CLR,0.00,WeatherDisplay:10.37,2013-05-04 07:12:00,
2013-05-04 03:17:00,57.4,43.6,31.01,SE,137,2.0,5.0,60,0.00,CLR,CLR,0.00,WeatherDisplay:10.37,2013-05-04 07:17:00,
2013-05-04 03:22:00,57.6,43.8,31.00,SE,126,2.0,10.0,60,0.00,CLR,CLR,0.00,WeatherDisplay:10.37,2013-05-04 07:22:00,
2013-05-04 03:27:00,57.7,43.9,31.00,SE,132,2.0,7.0,60,0.00,CLR,CLR,0.00,WeatherDisplay:10.37,2013-05-04 07:27:00,
2013-05-04 03:32:00,57.5,44.1,31.00,SE,137,0.0,6.0,61,0.00,CLR,CLR,0.00,WeatherDisplay:10.37,2013-05-04 07:32:00,
2013-05-04 03:37:00,57.2,43.4,31.01,SE,138,0.0,7.0,60,0.00,CLR,CLR,0.00,WeatherDisplay:10.37,2013-05-04 07:37:00,
2013-05-04 03:42:00,57.0,43.7,31.00,ESE,119,1.0,7.0,61,0.00,CLR,CLR,0.00,WeatherDisplay:10.37,2013-05-04 07:42:00,
2013-05-04 03:47:00,56.8,43.9,31.01,ESE,117,2.0,7.0,62,0.00,CLR,CLR,0.00,WeatherDisplay:10.37,2013-05-04 07:47:00,
2013-05-04 03:52:00,56.6,43.7,31.01,SE,132,1.0,7.0,62,0.00,CLR,CLR,0.00,WeatherDisplay:10.37,2013-05-04 07:52:00,
2013-05-04 03:57:00,56.5,43.6,31.01,SE,127,0.0,5.0,62,0.00,CLR,CLR,0.00,WeatherDisplay:10.37,2013-05-04 07:57:00,
2013-05-04 04:02:00,56.3,43.9,31.01,ESE,119,1.0,5.0,63,0.00,CLR,CLR,0.00,WeatherDisplay:10.37,2013-05-04 08:02:00,
2013-05-04 04:07:00,56.1,43.7,31.01,SE,128,1.0,5.0,63,0.00,CLR,CLR,0.00,WeatherDisplay:10.37,2013-05-04 08:07:00,
2013-05-04 04:12:00,55.9,43.9,31.00,SSE,148,5.0,8.0,64,0.00,CLR,CLR,0.00,WeatherDisplay:10.37,2013-05-04 08:12:00,
2013-05-04 04:17:00,55.9,43.9,31.01,SE,139,2.0,7.0,64,0.00,CLR,CLR,0.00,WeatherDisplay:10.37,2013-05-04 08:17:00,
2013-05-04 04:22:00,55.9,43.9,31.01,SSE,147,2.0,8.0,64,0.00,CLR,CLR,0.00,WeatherDisplay:10.37,2013-05-04 08:22:00,
2013-05-04 04:27:00,55.7,43.7,31.01,SE,145,0.0,5.0,64,0.00,CLR,CLR,0.00,WeatherDisplay:10.37,2013-05-04 08:27:00,
2013-05-04 04:32:00,55.5,43.9,31.01,SE,142,1.0,7.0,65,0.00,CLR,CLR,0.00,WeatherDisplay:10.37,2013-05-04 08:32:00,
2013-05-04 04:37:00,55.3,43.7,31.01,SSE,147,2.0,7.0,65,0.00,CLR,CLR,0.00,WeatherDisplay:10.37,2013-05-04 08:37:00,
2013-05-04 04:42:00,55.2,44.0,31.01,SE,140,6.0,12.0,66,0.00,CLR,CLR,0.00,WeatherDisplay:10.37,2013-05-04 08:42:00,
2013-05-04 04:47:00,55.3,44.1,31.01,SE,143,5.0,8.0,66,0.00,CLR,CLR,0.00,WeatherDisplay:10.37,2013-05-04 08:47:00,
2013-05-04 04:52:00,55.1,43.9,31.01,SE,135,3.0,6.0,66,0.00,CLR,CLR,0.00,WeatherDisplay:10.37,2013-05-04 08:52:00,
2013-05-04 04:57:00,55.0,43.8,31.01,SE,129,1.0,8.0,66,0.00,CLR,CLR,0.00,WeatherDisplay:10.37,2013-05-04 08:57:00,
2013-05-04 05:02:00,54.8,44.0,31.01,SE,143,0.0,8.0,67,0.00,CLR,CLR,0.00,WeatherDisplay:10.37,2013-05-04 09:02:00,
2013-05-04 05:07:00,54.6,43.9,31.01,SSE,149,0.0,7.0,67,0.00,CLR,CLR,0.00,WeatherDisplay:10.37,2013-05-04 09:07:00,
2013-05-04 05:12:00,54.4,44.1,31.01,SSE,157,0.0,8.0,68,0.00,CLR,CLR,0.00,WeatherDisplay:10.37,2013-05-04 09:12:00,
2013-05-04 05:17:00,54.2,43.9,31.02,SSE,152,1.0,7.0,68,0.00,CLR,CLR,0.00,WeatherDisplay:10.37,2013-05-04 09:17:00,
2013-05-04 05:22:00,54.1,43.8,31.02,SSE,153,3.0,6.0,68,0.00,CLR,CLR,0.00,WeatherDisplay:10.37,2013-05-04 09:22:00,
2013-05-04 05:27:00,53.9,44.0,31.02,SSE,150,1.0,5.0,69,0.00,CLR,CLR,0.00,WeatherDisplay:10.37,2013-05-04 09:27:00,
2013-05-04 05:32:00,53.7,43.8,31.02,SE,143,1.0,4.0,69,0.00,CLR,CLR,0.00,WeatherDisplay:10.37,2013-05-04 09:32:00,
2013-05-04 05:37:00,53.5,43.9,31.02,SSE,150,0.0,5.0,70,0.00,CLR,CLR,0.00,WeatherDisplay:10.37,2013-05-04 09:37:00,
2013-05-04 05:42:00,53.2,43.7,31.02,SE,144,2.0,6.0,70,0.00,CLR,CLR,0.00,WeatherDisplay:10.37,2013-05-04 09:42:00,
2013-05-04 05:47:00,53.2,44.0,31.02,SE,128,0.0,6.0,71,0.00,CLR,CLR,0.00,WeatherDisplay:10.37,2013-05-04 09:47:00,
2013-05-04 05:52:00,52.9,43.8,31.02,SE,136,2.0,6.0,71,0.00,CLR,CLR,0.00,WeatherDisplay:10.37,2013-05-04 09:52:00,
2013-05-04 05:57:00,52.7,44.0,31.02,SSE,152,0.0,4.0,72,0.00,CLR,CLR,0.00,WeatherDisplay:10.37,2013-05-04 09:57:00,
2013-05-04 06:02:00,52.6,43.8,31.02,SSE,163,1.0,4.0,72,0.00,CLR,CLR,0.00,WeatherDisplay:10.37,2013-05-04 10:02:00,
2013-05-04 06:07:00,52.3,43.6,31.03,SSE,150,1.0,4.0,72,0.00,CLR,CLR,0.00,WeatherDisplay:10.37,2013-05-04 10:07:00,
2013-05-04 06:12:00,52.2,43.4,31.03,ESE,117,2.0,7.0,72,0.00,CLR,CLR,0.00,WeatherDisplay:10.37,2013-05-04 10:12:00,
2013-05-04 06:17:00,52.2,43.4,31.03,SE,143,0.0,6.0,72,0.00,CLR,CLR,0.00,WeatherDisplay:10.37,2013-05-04 10:17:00,
2013-05-04 06:22:00,52.0,43.3,31.03,SE,145,1.0,6.0,72,0.00,CLR,CLR,0.00,WeatherDisplay:10.37,2013-05-04 10:22:00,
2013-05-04 06:27:00,51.9,43.2,31.03,SE,144,2.0,8.0,72,0.00,CLR,CLR,0.00,WeatherDisplay:10.37,2013-05-04 10:27:00,
2013-05-04 06:32:00,52.0,43.3,31.03,SE,138,0.0,8.0,72,0.00,CLR,CLR,0.00,WeatherDisplay:10.37,2013-05-04 10:32:00,
2013-05-04 06:37:00,52.0,42.9,31.03,SE,124,0.0,5.0,71,0.00,CLR,CLR,0.00,WeatherDisplay:10.37,2013-05-04 10:37:00,
2013-05-04 06:42:00,52.0,42.9,31.03,ESE,123,0.0,2.0,71,0.00,CLR,CLR,0.00,WeatherDisplay:10.37,2013-05-04 10:42:00,
2013-05-04 06:47:00,51.8,42.7,31.03,SE,128,0.0,2.0,71,0.00,CLR,CLR,0.00,WeatherDisplay:10.37,2013-05-04 10:47:00,
2013-05-04 06:52:00,51.7,42.6,31.03,SE,145,1.0,6.0,71,0.00,CLR,CLR,0.00,WeatherDisplay:10.37,2013-05-04 10:52:00,
2013-05-04 06:57:00,51.7,43.0,31.04,SSE,151,0.0,7.0,72,0.00,CLR,CLR,0.00,WeatherDisplay:10.37,2013-05-04 10:57:00,
2013-05-04 07:02:00,51.9,42.8,31.04,SE,142,2.0,9.0,71,0.00,CLR,CLR,0.00,WeatherDisplay:10.37,2013-05-04 11:02:00,
2013-05-04 07:07:00,52.2,42.7,31.04,SE,136,3.0,6.0,70,0.00,CLR,CLR,0.00,WeatherDisplay:10.37,2013-05-04 11:07:00,
2013-05-04 07:12:00,52.4,42.9,31.04,SE,124,1.0,7.0,70,0.00,CLR,CLR,0.00,WeatherDisplay:10.37,2013-05-04 11:12:00,
2013-05-04 07:17:00,52.6,42.7,31.04,ESE,115,3.0,8.0,69,0.00,CLR,CLR,0.00,WeatherDisplay:10.37,2013-05-04 11:17:00,
2013-05-04 07:22:00,52.8,42.9,31.04,ESE,115,2.0,6.0,69,0.00,CLR,CLR,0.00,WeatherDisplay:10.37,2013-05-04 11:22:00,
2013-05-04 07:27:00,52.8,42.9,31.04,ESE,114,1.0,7.0,69,0.00,CLR,CLR,0.00,WeatherDisplay:10.37,2013-05-04 11:27:00,
2013-05-04 07:32:00,52.9,42.6,31.04,SE,133,3.0,15.0,68,0.00,CLR,CLR,0.00,WeatherDisplay:10.37,2013-05-04 11:32:00,
2013-05-04 07:37:00,53.1,42.4,31.04,SE,129,6.0,10.0,67,0.00,CLR,CLR,0.00,WeatherDisplay:10.37,2013-05-04 11:37:00,
2013-05-04 07:42:00,53.3,42.2,31.04,SE,124,2.0,12.0,66,0.00,CLR,CLR,0.00,WeatherDisplay:10.37,2013-05-04 11:42:00,
2013-05-04 07:47:00,53.4,41.5,31.04,SE,130,7.0,12.0,64,0.00,CLR,CLR,0.00,WeatherDisplay:10.37,2013-05-04 11:47:00,
2013-05-04 07:52:00,53.4,41.1,31.04,SE,129,6.0,8.0,63,0.00,CLR,CLR,0.00,WeatherDisplay:10.37,2013-05-04 11:52:00,
2013-05-04 07:57:00,53.5,41.7,31.04,SE,137,3.0,10.0,64,0.00,CLR,CLR,0.00,WeatherDisplay:10.37,2013-05-04 11:57:00,
2013-05-04 08:02:00,53.6,41.3,31.04,SE,139,2.0,8.0,63,0.00,CLR,CLR,0.00,WeatherDisplay:10.37,2013-05-04 12:02:00,
2013-05-04 08:07:00,53.7,41.0,31.05,ESE,110,3.0,7.0,62,0.00,CLR,CLR,0.00,WeatherDisplay:10.37,2013-05-04 12:07:00,
2013-05-04 08:12:00,53.8,41.1,31.05,ESE,121,6.0,12.0,62,0.00,CLR,CLR,0.00,WeatherDisplay:10.37,2013-05-04 12:12:00,
2013-05-04 08:17:00,54.0,41.3,31.05,ESE,121,3.0,8.0,62,0.00,CLR,CLR,0.00,WeatherDisplay:10.37,2013-05-04 12:17:00,
2013-05-04 08:22:00,54.3,41.6,31.04,ESE,117,5.0,12.0,62,0.00,CLR,CLR,0.00,WeatherDisplay:10.37,2013-05-04 12:22:00,
2013-05-04 08:32:00,55.3,42.0,31.04,ESE,119,3.0,8.0,61,0.00,CLR,CLR,0.00,WeatherDisplay:10.37,2013-05-04 12:32:00,
2013-05-04 08:37:00,55.4,41.7,31.04,ESE,117,6.0,12.0,60,0.00,CLR,CLR,0.00,WeatherDisplay:10.37,2013-05-04 12:37:00,
2013-05-04 08:42:00,55.7,42.0,31.04,SE,142,3.0,10.0,60,0.00,CLR,CLR,0.00,WeatherDisplay:10.37,2013-05-04 12:42:00,
2013-05-04 08:47:00,56.2,41.6,31.04,SE,138,5.0,8.0,58,0.00,CLR,CLR,0.00,WeatherDisplay:10.37,2013-05-04 12:47:00,
2013-05-04 08:52:00,56.4,40.9,31.04,ESE,122,8.0,13.0,56,0.00,CLR,CLR,0.00,WeatherDisplay:10.37,2013-05-04 12:52:00,
2013-05-04 09:02:00,56.2,41.1,31.04,SE,134,3.0,13.0,57,0.00,CLR,CLR,0.00,WeatherDisplay:10.37,2013-05-04 13:02:00,
2013-05-04 09:07:00,56.4,40.9,31.04,SE,137,7.0,13.0,56,0.00,CLR,CLR,0.00,WeatherDisplay:10.37,2013-05-04 13:07:00,
2013-05-04 09:12:00,56.7,40.7,31.04,SE,140,8.0,14.0,55,0.00,CLR,CLR,0.00,WeatherDisplay:10.37,2013-05-04 13:12:00,
2013-05-04 09:17:00,56.8,40.3,31.04,SE,128,6.0,13.0,54,0.00,CLR,CLR,0.00,WeatherDisplay:10.37,2013-05-04 13:17:00,
2013-05-04 09:22:00,57.2,40.7,31.04,SE,134,8.0,12.0,54,0.00,CLR,CLR,0.00,WeatherDisplay:10.37,2013-05-04 13:22:00,
2013-05-04 09:27:00,57.7,41.2,31.04,SE,126,5.0,9.0,54,0.00,CLR,CLR,0.00,WeatherDisplay:10.37,2013-05-04 13:27:00,
2013-05-04 09:32:00,58.4,40.9,31.03,SE,124,5.0,12.0,52,0.00,CLR,CLR,0.00,WeatherDisplay:10.37,2013-05-04 13:32:00,
2013-05-04 09:37:00,59.1,41.0,31.03,SE,124,5.0,12.0,51,0.00,CLR,CLR,0.00,WeatherDisplay:10.37,2013-05-04 13:37:00,
2013-05-04 09:42:00,59.6,40.9,31.03,SE,125,8.0,15.0,50,0.00,CLR,CLR,0.00,WeatherDisplay:10.37,2013-05-04 13:42:00,
2013-05-04 09:47:00,59.5,40.8,31.03,ESE,121,5.0,12.0,50,0.00,CLR,CLR,0.00,WeatherDisplay:10.37,2013-05-04 13:47:00,
2013-05-04 09:52:00,59.7,41.0,31.03,SE,126,2.0,12.0,50,0.00,CLR,CLR,0.00,WeatherDisplay:10.37,2013-05-04 13:52:00,
2013-05-04 09:57:00,59.8,42.1,31.03,SE,129,1.0,10.0,52,0.00,CLR,CLR,0.00,WeatherDisplay:10.37,2013-05-04 13:57:00,
2013-05-04 10:02:00,59.9,40.1,31.03,ESE,121,7.0,14.0,48,0.00,CLR,CLR,0.00,WeatherDisplay:10.37,2013-05-04 14:02:00,
2013-05-04 10:07:00,60.0,40.8,31.03,ESE,118,7.0,13.0,49,0.00,CLR,CLR,0.00,WeatherDisplay:10.37,2013-05-04 14:07:00,
2013-05-04 10:12:00,60.3,41.1,31.03,ESE,112,6.0,15.0,49,0.00,CLR,CLR,0.00,WeatherDisplay:10.37,2013-05-04 14:12:00,
2013-05-04 10:17:00,60.2,40.4,31.03,SE,132,7.0,17.0,48,0.00,CLR,CLR,0.00,WeatherDisplay:10.37,2013-05-04 14:17:00,
2013-05-04 10:22:00,60.2,42.5,31.03,SE,144,1.0,13.0,52,0.00,CLR,CLR,0.00,WeatherDisplay:10.37,2013-05-04 14:22:00,
2013-05-04 10:27:00,60.6,41.3,31.03,SE,135,6.0,16.0,49,0.00,CLR,CLR,0.00,WeatherDisplay:10.37,2013-05-04 14:27:00,
2013-05-04 10:32:00,60.8,41.5,31.03,SE,126,3.0,12.0,49,0.00,CLR,CLR,0.00,WeatherDisplay:10.37,2013-05-04 14:32:00,
2013-05-04 10:37:00,61.1,41.8,31.03,SE,127,6.0,12.0,49,0.00,CLR,CLR,0.00,WeatherDisplay:10.37,2013-05-04 14:37:00,
2013-05-04 10:42:00,61.4,42.6,31.02,SE,134,6.0,10.0,50,0.00,CLR,CLR,0.00,WeatherDisplay:10.37,2013-05-04 14:42:00,
2013-05-04 10:47:00,62.3,41.2,31.02,SE,133,5.0,9.0,46,0.00,CLR,CLR,0.00,WeatherDisplay:10.37,2013-05-04 14:47:00,
2013-05-04 10:52:00,63.0,41.9,31.02,SSE,149,5.0,14.0,46,0.00,CLR,CLR,0.00,WeatherDisplay:10.37,2013-05-04 14:52:00,
2013-05-04 10:57:00,63.2,39.1,31.02,South,173,10.0,15.0,41,0.00,CLR,CLR,0.00,WeatherDisplay:10.37,2013-05-04 14:57:00,
2013-05-04 11:02:00,63.0,40.7,31.02,SSE,158,7.0,13.0,44,0.00,CLR,CLR,0.00,WeatherDisplay:10.37,2013-05-04 15:02:00,
2013-05-04 11:07:00,63.0,41.3,31.02,SE,139,6.0,12.0,45,0.00,CLR,CLR,0.00,WeatherDisplay:10.37,2013-05-04 15:07:00,
2013-05-04 11:12:00,63.2,40.3,31.02,SE,142,7.0,12.0,43,0.00,CLR,CLR,0.00,WeatherDisplay:10.37,2013-05-04 15:12:00,
2013-05-04 11:17:00,63.1,39.7,31.02,SE,139,6.0,15.0,42,0.00,CLR,CLR,0.00,WeatherDisplay:10.37,2013-05-04 15:17:00,
2013-05-04 11:22:00,63.4,40.5,31.02,SE,135,2.0,9.0,43,0.00,CLR,CLR,0.00,WeatherDisplay:10.37,2013-05-04 15:22:00,
2013-05-04 11:27:00,63.8,42.1,31.02,SE,138,5.0,14.0,45,0.00,CLR,CLR,0.00,WeatherDisplay:10.37,2013-05-04 15:27:00,
2013-05-04 11:32:00,64.5,41.5,31.02,SSE,163,7.0,12.0,43,0.00,CLR,CLR,0.00,WeatherDisplay:10.37,2013-05-04 15:32:00,
2013-05-04 11:37:00,64.7,41.1,31.02,SE,140,5.0,16.0,42,0.00,CLR,CLR,0.00,WeatherDisplay:10.37,2013-05-04 15:37:00,
2013-05-04 11:42:00,64.8,43.0,31.02,ESE,111,2.0,8.0,45,0.00,CLR,CLR,0.00,WeatherDisplay:10.37,2013-05-04 15:42:00,
2013-05-04 11:47:00,65.2,40.9,31.01,ESE,115,3.0,8.0,41,0.00,CLR,CLR,0.00,WeatherDisplay:10.37,2013-05-04 15:47:00,
2013-05-04 11:52:00,66.0,41.6,31.01,ESE,121,6.0,9.0,41,0.00,CLR,CLR,0.00,WeatherDisplay:10.37,2013-05-04 15:52:00,
2013-05-04 11:57:00,66.3,40.6,31.01,SE,135,7.0,14.0,39,0.00,CLR,CLR,0.00,WeatherDisplay:10.37,2013-05-04 15:57:00,
2013-05-04 12:02:00,66.7,40.3,31.01,SSE,153,2.0,12.0,38,0.00,CLR,CLR,0.00,WeatherDisplay:10.37,2013-05-04 16:02:00,
2013-05-04 12:07:00,67.2,42.1,31.01,SE,138,5.0,15.0,40,0.00,CLR,CLR,0.00,WeatherDisplay:10.37,2013-05-04 16:07:00,
2013-05-04 12:12:00,67.9,41.3,31.01,SE,127,3.0,9.0,38,0.00,CLR,CLR,0.00,WeatherDisplay:10.37,2013-05-04 16:12:00,
2013-05-04 12:17:00,68.0,42.1,31.01,SSE,162,8.0,15.0,39,0.00,CLR,CLR,0.00,WeatherDisplay:10.37,2013-05-04 16:17:00,
2013-05-04 12:22:00,67.9,40.7,31.01,SSE,152,7.0,12.0,37,0.00,CLR,CLR,0.00,WeatherDisplay:10.37,2013-05-04 16:22:00,
2013-05-04 12:27:00,68.1,42.8,31.01,SE,127,1.0,12.0,40,0.00,CLR,CLR,0.00,WeatherDisplay:10.37,2013-05-04 16:27:00,
2013-05-04 12:32:00,68.0,42.1,31.01,ESE,113,6.0,15.0,39,0.00,CLR,CLR,0.00,WeatherDisplay:10.37,2013-05-04 16:32:00,
2013-05-04 12:37:00,68.2,41.6,31.00,SE,129,7.0,16.0,38,0.00,CLR,CLR,0.00,WeatherDisplay:10.37,2013-05-04 16:37:00,
2013-05-04 12:42:00,68.3,41.0,31.00,SSE,153,9.0,17.0,37,0.00,CLR,CLR,0.00,WeatherDisplay:10.37,2013-05-04 16:42:00,
2013-05-04 12:47:00,68.1,39.4,31.00,SSE,163,10.0,18.0,35,0.00,CLR,CLR,0.00,WeatherDisplay:10.37,2013-05-04 16:47:00,
2013-05-04 12:52:00,68.3,43.0,31.00,South,170,3.0,12.0,40,0.00,CLR,CLR,0.00,WeatherDisplay:10.37,2013-05-04 16:52:00,
2013-05-04 12:57:00,68.5,41.1,31.00,SE,138,1.0,12.0,37,0.00,CLR,CLR,0.00,WeatherDisplay:10.37,2013-05-04 16:57:00,
2013-05-04 13:02:00,67.8,40.6,31.00,ESE,113,5.0,10.0,37,0.00,CLR,CLR,0.00,WeatherDisplay:10.37,2013-05-04 17:02:00,
2013-05-04 13:07:00,67.2,39.4,31.00,SE,130,6.0,13.0,36,0.00,CLR,CLR,0.00,WeatherDisplay:10.37,2013-05-04 17:07:00,
2013-05-04 13:12:00,67.2,41.4,31.00,SE,125,5.0,10.0,39,0.00,CLR,CLR,0.00,WeatherDisplay:10.37,2013-05-04 17:12:00,
2013-05-04 13:17:00,67.5,41.6,31.00,ESE,107,1.0,9.0,39,0.00,CLR,CLR,0.00,WeatherDisplay:10.37,2013-05-04 17:17:00,
2013-05-04 13:22:00,68.1,41.5,31.00,ESE,115,6.0,12.0,38,0.00,CLR,CLR,0.00,WeatherDisplay:10.37,2013-05-04 17:22:00,
2013-05-04 13:27:00,69.2,41.8,30.99,SSE,159,7.0,16.0,37,0.00,CLR,CLR,0.00,WeatherDisplay:10.37,2013-05-04 17:27:00,
2013-05-04 13:32:00,69.7,40.0,30.99,SSE,164,6.0,15.0,34,0.00,CLR,CLR,0.00,WeatherDisplay:10.37,2013-05-04 17:32:00,
2013-05-04 13:37:00,70.1,40.4,30.99,SSE,157,7.0,12.0,34,0.00,CLR,CLR,0.00,WeatherDisplay:10.37,2013-05-04 17:37:00,
2013-05-04 13:42:00,70.4,42.1,30.99,SE,132,6.0,12.0,36,0.00,CLR,CLR,0.00,WeatherDisplay:10.37,2013-05-04 17:42:00,
2013-05-04 13:47:00,70.5,42.2,30.99,ESE,114,3.0,10.0,36,0.00,CLR,CLR,0.00,WeatherDisplay:10.37,2013-05-04 17:47:00,
2013-05-04 13:52:00,70.7,41.7,30.98,ESE,106,3.0,8.0,35,0.00,CLR,CLR,0.00,WeatherDisplay:10.37,2013-05-04 17:52:00,
2013-05-04 13:57:00,70.6,42.3,30.98,ESE,118,3.0,9.0,36,0.00,CLR,CLR,0.00,WeatherDisplay:10.37,2013-05-04 17:57:00,
2013-05-04 14:02:00,70.9,41.1,30.98,ESE,123,3.0,12.0,34,0.00,CLR,CLR,0.00,WeatherDisplay:10.37,2013-05-04 18:02:00,
2013-05-04 14:07:00,71.3,39.9,30.97,SE,125,3.0,9.0,32,0.00,CLR,CLR,0.00,WeatherDisplay:10.37,2013-05-04 18:07:00,
2013-05-04 14:12:00,71.7,40.3,30.97,ESE,120,5.0,10.0,32,0.00,CLR,CLR,0.00,WeatherDisplay:10.37,2013-05-04 18:12:00,
2013-05-04 14:17:00,71.8,41.9,30.97,ESE,115,3.0,14.0,34,0.00,CLR,CLR,0.00,WeatherDisplay:10.37,2013-05-04 18:17:00,
2013-05-04 14:22:00,71.8,41.2,30.97,SSE,149,9.0,13.0,33,0.00,CLR,CLR,0.00,WeatherDisplay:10.37,2013-05-04 18:22:00,
2013-05-04 14:27:00,71.6,40.1,30.97,SSE,153,6.0,13.0,32,0.00,CLR,CLR,0.00,WeatherDisplay:10.37,2013-05-04 18:27:00,
2013-05-04 14:32:00,71.2,42.1,30.97,SE,132,0.0,8.0,35,0.00,CLR,CLR,0.00,WeatherDisplay:10.37,2013-05-04 18:32:00,
2013-05-04 14:37:00,71.2,41.4,30.97,ESE,105,2.0,12.0,34,0.00,CLR,CLR,0.00,WeatherDisplay:10.37,2013-05-04 18:37:00,
2013-05-04 14:42:00,70.9,41.1,30.97,ESE,114,2.0,9.0,34,0.00,CLR,CLR,0.00,WeatherDisplay:10.37,2013-05-04 18:42:00,
2013-05-04 14:47:00,70.8,38.7,30.96,SE,140,5.0,13.0,31,0.00,CLR,CLR,0.00,WeatherDisplay:10.37,2013-05-04 18:47:00,
2013-05-04 14:52:00,71.0,41.2,30.96,SE,138,3.0,7.0,34,0.00,CLR,CLR,0.00,WeatherDisplay:10.37,2013-05-04 18:52:00,
2013-05-04 14:57:00,71.2,44.3,30.96,East,85,1.0,9.0,38,0.00,CLR,CLR,0.00,WeatherDisplay:10.37,2013-05-04 18:57:00,
2013-05-04 15:02:00,71.7,41.0,30.96,East,81,6.0,12.0,33,0.00,CLR,CLR,0.00,WeatherDisplay:10.37,2013-05-04 19:02:00,
2013-05-04 15:07:00,71.6,40.2,30.96,East,79,2.0,8.0,32,0.00,CLR,CLR,0.00,WeatherDisplay:10.37,2013-05-04 19:07:00,
2013-05-04 15:12:00,71.7,41.0,30.96,ENE,76,5.0,13.0,33,0.00,CLR,CLR,0.00,WeatherDisplay:10.37,2013-05-04 19:12:00,
2013-05-04 15:17:00,71.9,39.6,30.96,East,93,5.0,12.0,31,0.00,CLR,CLR,0.00,WeatherDisplay:10.37,2013-05-04 19:17:00,
2013-05-04 15:22:00,71.9,39.6,30.95,SE,130,7.0,15.0,31,0.00,CLR,CLR,0.00,WeatherDisplay:10.37,2013-05-04 19:22:00,
2013-05-04 15:27:00,71.9,38.7,30.95,SE,134,5.0,15.0,30,0.00,CLR,CLR,0.00,WeatherDisplay:10.37,2013-05-04 19:27:00,
2013-05-04 15:32:00,72.1,38.9,30.95,SE,139,5.0,12.0,30,0.00,CLR,CLR,0.00,WeatherDisplay:10.37,2013-05-04 19:32:00,
2013-05-04 15:37:00,72.5,41.7,30.95,SE,130,5.0,8.0,33,0.00,CLR,CLR,0.00,WeatherDisplay:10.37,2013-05-04 19:37:00,
2013-05-04 15:42:00,72.4,40.9,30.95,ESE,111,3.0,9.0,32,0.00,CLR,CLR,0.00,WeatherDisplay:10.37,2013-05-04 19:42:00,
2013-05-04 15:47:00,72.2,43.8,30.94,East,96,2.0,8.0,36,0.00,CLR,CLR,0.00,WeatherDisplay:10.37,2013-05-04 19:47:00,
2013-05-04 15:52:00,72.4,43.9,30.94,East,87,2.0,5.0,36,0.00,CLR,CLR,0.00,WeatherDisplay:10.37,2013-05-04 19:52:00,
2013-05-04 15:57:00,72.5,44.7,30.94,ENE,68,3.0,5.0,37,0.00,CLR,CLR,0.00,WeatherDisplay:10.37,2013-05-04 19:57:00,
2013-05-04 16:02:00,72.4,43.9,30.94,NE,55,3.0,8.0,36,0.00,CLR,CLR,0.00,WeatherDisplay:10.37,2013-05-04 20:02:00,
2013-05-04 16:07:00,72.5,41.7,30.94,NE,55,1.0,6.0,33,0.00,CLR,CLR,0.00,WeatherDisplay:10.37,2013-05-04 20:07:00,
2013-05-04 16:12:00,72.8,42.0,30.94,ENE,71,5.0,9.0,33,0.00,CLR,CLR,0.00,WeatherDisplay:10.37,2013-05-04 20:12:00,
2013-05-04 16:17:00,72.9,39.6,30.94,SE,124,6.0,12.0,30,0.00,CLR,CLR,0.00,WeatherDisplay:10.37,2013-05-04 20:17:00,
2013-05-04 16:22:00,72.7,41.1,30.94,ESE,123,5.0,13.0,32,0.00,CLR,CLR,0.00,WeatherDisplay:10.37,2013-05-04 20:22:00,
2013-05-04 16:27:00,72.7,39.5,30.94,ESE,116,5.0,9.0,30,0.00,CLR,CLR,0.00,WeatherDisplay:10.37,2013-05-04 20:27:00,
2013-05-04 16:32:00,72.6,39.4,30.94,SE,126,7.0,12.0,30,0.00,CLR,CLR,0.00,WeatherDisplay:10.37,2013-05-04 20:32:00,
2013-05-04 16:37:00,72.6,40.2,30.94,ESE,114,5.0,12.0,31,0.00,CLR,CLR,0.00,WeatherDisplay:10.37,2013-05-04 20:37:00,
2013-05-04 16:42:00,72.4,40.9,30.94,ESE,102,3.0,12.0,32,0.00,CLR,CLR,0.00,WeatherDisplay:10.37,2013-05-04 20:42:00,
2013-05-04 16:47:00,72.2,42.3,30.93,SE,138,2.0,12.0,34,0.00,CLR,CLR,0.00,WeatherDisplay:10.37,2013-05-04 20:47:00,
2013-05-04 16:52:00,72.3,40.0,30.93,SE,136,2.0,9.0,31,0.00,CLR,CLR,0.00,WeatherDisplay:10.37,2013-05-04 20:52:00,
2013-05-04 16:57:00,72.4,41.6,30.93,ESE,111,3.0,12.0,33,0.00,CLR,CLR,0.00,WeatherDisplay:10.37,2013-05-04 20:57:00,
2013-05-04 17:02:00,72.4,41.7,30.93,ESE,109,1.0,6.0,33,0.00,CLR,CLR,0.00,WeatherDisplay:10.37,2013-05-04 21:02:00,
2013-05-04 17:07:00,72.8,42.0,30.93,East,95,3.0,6.0,33,0.00,CLR,CLR,0.00,WeatherDisplay:10.37,2013-05-04 21:07:00,
2013-05-04 17:12:00,72.9,40.4,30.93,East,92,3.0,9.0,31,0.00,CLR,CLR,0.00,WeatherDisplay:10.37,2013-05-04 21:12:00,
2013-05-04 17:17:00,73.0,40.6,30.93,East,97,5.0,8.0,31,0.00,CLR,CLR,0.00,WeatherDisplay:10.37,2013-05-04 21:17:00,
2013-05-04 17:22:00,73.1,42.3,30.93,East,101,2.0,10.0,33,0.00,CLR,CLR,0.00,WeatherDisplay:10.37,2013-05-04 21:22:00,
2013-05-04 17:27:00,73.3,39.1,30.93,East,90,2.0,7.0,29,0.00,CLR,CLR,0.00,WeatherDisplay:10.37,2013-05-04 21:27:00,
2013-05-04 17:32:00,73.0,42.2,30.93,ENE,69,1.0,7.0,33,0.00,CLR,CLR,0.00,WeatherDisplay:10.37,2013-05-04 21:32:00,
2013-05-04 17:37:00,73.0,42.2,30.93,ENE,68,1.0,3.0,33,0.00,CLR,CLR,0.00,WeatherDisplay:10.37,2013-05-04 21:37:00,
2013-05-04 17:42:00,73.2,43.2,30.92,East,80,1.0,4.0,34,0.00,CLR,CLR,0.00,WeatherDisplay:10.37,2013-05-04 21:42:00,
2013-05-04 17:47:00,73.3,41.6,30.93,ESE,109,2.0,12.0,32,0.00,CLR,CLR,0.00,WeatherDisplay:10.37,2013-05-04 21:47:00,
2013-05-04 17:52:00,73.3,40.0,30.92,ESE,118,2.0,9.0,30,0.00,CLR,CLR,0.00,WeatherDisplay:10.37,2013-05-04 21:52:00,
2013-05-04 17:57:00,73.4,42.5,30.92,ESE,113,0.0,9.0,33,0.00,CLR,CLR,0.00,WeatherDisplay:10.37,2013-05-04 21:57:00,
2013-05-04 18:02:00,73.7,44.3,30.92,ENE,74,2.0,8.0,35,0.00,CLR,CLR,0.00,WeatherDisplay:10.37,2013-05-04 22:02:00,
2013-05-04 18:07:00,73.7,44.3,30.92,NE,48,0.0,4.0,35,0.00,CLR,CLR,0.00,WeatherDisplay:10.37,2013-05-04 22:07:00,
2013-05-04 18:12:00,73.3,42.4,30.92,ENE,57,2.0,5.0,33,0.00,CLR,CLR,0.00,WeatherDisplay:10.37,2013-05-04 22:12:00,
2013-05-04 18:17:00,73.0,43.7,30.92,ENE,64,1.0,6.0,35,0.00,CLR,CLR,0.00,WeatherDisplay:10.37,2013-05-04 22:17:00,
2013-05-04 18:22:00,72.8,42.8,30.92,ENE,70,3.0,7.0,34,0.00,CLR,CLR,0.00,WeatherDisplay:10.37,2013-05-04 22:22:00,
2013-05-04 18:27:00,72.5,43.3,30.92,ENE,70,3.0,8.0,35,0.00,CLR,CLR,0.00,WeatherDisplay:10.37,2013-05-04 22:27:00,
2013-05-04 18:32:00,72.5,41.7,30.92,ENE,74,2.0,5.0,33,0.00,CLR,CLR,0.00,WeatherDisplay:10.37,2013-05-04 22:32:00,
2013-05-04 18:37:00,72.5,42.5,30.92,East,79,1.0,8.0,34,0.00,CLR,CLR,0.00,WeatherDisplay:10.37,2013-05-04 22:37:00,
2013-05-04 18:42:00,72.4,42.4,30.92,East,91,6.0,8.0,34,0.00,CLR,CLR,0.00,WeatherDisplay:10.37,2013-05-04 22:42:00,
2013-05-04 18:47:00,72.4,41.7,30.92,East,92,2.0,7.0,33,0.00,CLR,CLR,0.00,WeatherDisplay:10.37,2013-05-04 22:47:00,
2013-05-04 18:52:00,72.4,44.6,30.93,East,82,1.0,6.0,37,0.00,CLR,CLR,0.00,WeatherDisplay:10.37,2013-05-04 22:52:00,
2013-05-04 18:57:00,72.1,42.2,30.92,East,101,1.0,6.0,34,0.00,CLR,CLR,0.00,WeatherDisplay:10.37,2013-05-04 22:57:00,
2013-05-04 19:02:00,71.9,42.8,30.93,ESE,107,1.0,5.0,35,0.00,CLR,CLR,0.00,WeatherDisplay:10.37,2013-05-04 23:02:00,
2013-05-04 19:07:00,71.7,44.0,30.93,East,91,1.0,12.0,37,0.00,CLR,CLR,0.00,WeatherDisplay:10.37,2013-05-04 23:07:00,
2013-05-04 19:12:00,71.4,44.5,30.93,East,95,1.0,8.0,38,0.00,CLR,CLR,0.00,WeatherDisplay:10.37,2013-05-04 23:12:00,
2013-05-04 19:17:00,71.0,42.7,30.92,ESE,109,2.0,9.0,36,0.00,CLR,CLR,0.00,WeatherDisplay:10.37,2013-05-04 23:17:00,
2013-05-04 19:22:00,70.8,42.5,30.93,ESE,122,0.0,9.0,36,0.00,CLR,CLR,0.00,WeatherDisplay:10.37,2013-05-04 23:22:00,
2013-05-04 19:27:00,70.6,43.7,30.93,ESE,122,1.0,8.0,38,0.00,CLR,CLR,0.00,WeatherDisplay:10.37,2013-05-04 23:27:00,
2013-05-04 19:32:00,70.3,44.8,30.93,SE,127,0.0,2.0,40,0.00,CLR,CLR,0.00,WeatherDisplay:10.37,2013-05-04 23:32:00,
2013-05-04 19:37:00,70.0,44.5,30.92,SE,141,0.0,0.0,40,0.00,CLR,CLR,0.00,WeatherDisplay:10.37,2013-05-04 23:37:00,
2013-05-04 19:42:00,69.6,43.5,30.93,SE,140,0.0,0.0,39,0.00,CLR,CLR,0.00,WeatherDisplay:10.37,2013-05-04 23:42:00,
2013-05-04 19:47:00,69.2,44.5,30.92,SE,141,0.0,0.0,41,0.00,CLR,CLR,0.00,WeatherDisplay:10.37,2013-05-04 23:47:00,
2013-05-04 19:52:00,68.6,44.0,30.93,SE,129,1.0,5.0,41,0.00,CLR,CLR,0.00,WeatherDisplay:10.37,2013-05-04 23:52:00,
2013-05-04 19:57:00,68.3,44.9,30.93,ESE,105,0.0,2.0,43,0.00,CLR,CLR,0.00,WeatherDisplay:10.37,2013-05-04 23:57:00,
2013-05-04 20:02:00,67.7,46.1,30.93,ESE,104,0.0,0.0,46,0.00,CLR,CLR,0.00,WeatherDisplay:10.37,2013-05-05 00:02:00,
2013-05-04 20:07:00,67.1,46.7,30.93,ESE,104,0.0,0.0,48,0.00,CLR,CLR,0.00,WeatherDisplay:10.37,2013-05-05 00:07:00,
2013-05-04 20:12:00,66.4,46.1,30.93,ESE,104,0.0,0.0,48,0.00,CLR,CLR,0.00,WeatherDisplay:10.37,2013-05-05 00:12:00,
2013-05-04 20:17:00,65.7,47.6,30.93,ESE,104,0.0,0.0,52,0.00,CLR,CLR,0.00,WeatherDisplay:10.37,2013-05-05 00:17:00,
2013-05-04 20:22:00,65.0,46.4,30.93,ESE,104,0.0,0.0,51,0.00,CLR,CLR,0.00,WeatherDisplay:10.37,2013-05-05 00:22:00,
2013-05-04 20:27:00,64.2,47.7,30.94,ESE,104,0.0,0.0,55,0.00,CLR,CLR,0.00,WeatherDisplay:10.37,2013-05-05 00:27:00,
2013-05-04 20:32:00,63.4,49.3,30.93,ESE,104,0.0,0.0,60,0.00,CLR,CLR,0.00,WeatherDisplay:10.37,2013-05-05 00:32:00,
2013-05-04 20:37:00,62.7,49.5,30.94,ESE,104,0.0,0.0,62,0.00,CLR,CLR,0.00,WeatherDisplay:10.37,2013-05-05 00:37:00,
2013-05-04 20:42:00,61.8,49.0,30.94,ESE,104,0.0,0.0,63,0.00,CLR,CLR,0.00,WeatherDisplay:10.37,2013-05-05 00:42:00,
2013-05-04 20:47:00,60.9,48.7,30.94,ESE,104,0.0,0.0,64,0.00,CLR,CLR,0.00,WeatherDisplay:10.37,2013-05-05 00:47:00,
2013-05-04 20:52:00,60.1,49.1,30.94,ESE,104,0.0,0.0,67,0.00,CLR,CLR,0.00,WeatherDisplay:10.37,2013-05-05 00:52:00,
2013-05-04 20:57:00,59.3,49.1,30.94,ESE,104,0.0,0.0,69,0.00,CLR,CLR,0.00,WeatherDisplay:10.37,2013-05-05 00:57:00,
2013-05-04 21:02:00,58.6,48.9,30.94,ESE,104,0.0,0.0,70,0.00,CLR,CLR,0.00,WeatherDisplay:10.37,2013-05-05 01:02:00,
2013-05-04 21:07:00,58.1,49.5,30.95,ESE,104,0.0,0.0,73,0.00,CLR,CLR,0.00,WeatherDisplay:10.37,2013-05-05 01:07:00,
2013-05-04 21:12:00,57.8,48.5,30.95,ESE,104,0.0,0.0,71,0.00,CLR,CLR,0.00,WeatherDisplay:10.37,2013-05-05 01:12:00,
2013-05-04 21:17:00,57.6,49.0,30.95,ESE,104,0.0,0.0,73,0.00,CLR,CLR,0.00,WeatherDisplay:10.37,2013-05-05 01:17:00,
2013-05-04 21:22:00,57.4,48.4,30.95,ESE,104,0.0,0.0,72,0.00,CLR,CLR,0.00,WeatherDisplay:10.37,2013-05-05 01:22:00,
2013-05-04 21:27:00,56.9,49.4,30.95,ESE,104,0.0,0.0,76,0.00,CLR,CLR,0.00,WeatherDisplay:10.37,2013-05-05 01:27:00,
2013-05-04 21:32:00,56.2,49.4,30.96,ESE,104,0.0,0.0,78,0.00,CLR,CLR,0.00,WeatherDisplay:10.37,2013-05-05 01:32:00,
2013-05-04 21:37:00,55.6,49.5,30.96,ESE,104,0.0,0.0,80,0.00,CLR,CLR,0.00,WeatherDisplay:10.37,2013-05-05 01:37:00,
2013-05-04 21:42:00,55.1,49.1,30.96,ESE,104,0.0,0.0,80,0.00,CLR,CLR,0.00,WeatherDisplay:10.37,2013-05-05 01:42:00,
2013-05-04 21:47:00,54.7,49.0,30.96,ESE,104,0.0,0.0,81,0.00,CLR,CLR,0.00,WeatherDisplay:10.37,2013-05-05 01:47:00,
2013-05-04 21:52:00,54.1,48.4,30.96,ESE,104,0.0,0.0,81,0.00,CLR,CLR,0.00,WeatherDisplay:10.37,2013-05-05 01:52:00,
2013-05-04 21:57:00,53.4,48.4,30.96,ESE,104,0.0,0.0,83,0.00,CLR,CLR,0.00,WeatherDisplay:10.37,2013-05-05 01:57:00,
2013-05-04 22:02:00,53.1,48.7,30.96,ESE,104,0.0,0.0,85,0.00,CLR,CLR,0.00,WeatherDisplay:10.37,2013-05-05 02:02:00,
2013-05-04 22:07:00,52.6,48.6,30.96,ESE,104,0.0,0.0,86,0.00,CLR,CLR,0.00,WeatherDisplay:10.37,2013-05-05 02:07:00,
2013-05-04 22:12:00,52.2,48.4,30.96,ESE,104,0.0,0.0,87,0.00,CLR,CLR,0.00,WeatherDisplay:10.37,2013-05-05 02:12:00,
2013-05-04 22:17:00,51.9,48.4,30.96,ESE,104,0.0,0.0,88,0.00,CLR,CLR,0.00,WeatherDisplay:10.37,2013-05-05 02:17:00,
2013-05-04 22:22:00,51.6,48.2,30.97,ESE,104,0.0,0.0,88,0.00,CLR,CLR,0.00,WeatherDisplay:10.37,2013-05-05 02:22:00,
2013-05-04 22:27:00,51.4,47.9,30.97,ESE,104,0.0,0.0,88,0.00,CLR,CLR,0.00,WeatherDisplay:10.37,2013-05-05 02:27:00,
2013-05-04 22:32:00,51.2,48.1,30.97,ESE,104,0.0,0.0,89,0.00,CLR,CLR,0.00,WeatherDisplay:10.37,2013-05-05 02:32:00,
2013-05-04 22:37:00,51.2,48.1,30.97,ESE,104,0.0,0.0,89,0.00,CLR,CLR,0.00,WeatherDisplay:10.37,2013-05-05 02:37:00,
2013-05-04 22:42:00,51.1,48.3,30.97,ESE,104,0.0,0.0,90,0.00,CLR,CLR,0.00,WeatherDisplay:10.37,2013-05-05 02:42:00,
2013-05-04 22:47:00,51.1,48.0,30.97,ESE,104,0.0,0.0,89,0.00,CLR,CLR,0.00,WeatherDisplay:10.37,2013-05-05 02:47:00,
2013-05-04 22:52:00,50.9,47.8,30.97,ESE,104,0.0,0.0,89,0.00,CLR,CLR,0.00,WeatherDisplay:10.37,2013-05-05 02:52:00,
2013-05-04 22:57:00,50.8,47.3,30.97,ESE,104,0.0,0.0,88,0.00,CLR,CLR,0.00,WeatherDisplay:10.37,2013-05-05 02:57:00,
2013-05-04 23:02:00,50.6,47.2,30.97,ESE,104,0.0,0.0,88,0.00,CLR,CLR,0.00,WeatherDisplay:10.37,2013-05-05 03:02:00,
2013-05-04 23:07:00,50.4,47.0,30.97,ESE,104,0.0,0.0,88,0.00,CLR,CLR,0.00,WeatherDisplay:10.37,2013-05-05 03:07:00,
2013-05-04 23:12:00,50.2,47.1,30.97,ESE,104,0.0,0.0,89,0.00,CLR,CLR,0.00,WeatherDisplay:10.37,2013-05-05 03:12:00,
2013-05-04 23:17:00,50.0,46.9,30.97,ESE,104,0.0,0.0,89,0.00,CLR,CLR,0.00,WeatherDisplay:10.37,2013-05-05 03:17:00,
2013-05-04 23:22:00,49.7,46.6,30.97,ESE,104,0.0,0.0,89,0.00,CLR,CLR,0.00,WeatherDisplay:10.37,2013-05-05 03:22:00,
2013-05-04 23:27:00,49.6,46.8,30.97,ESE,104,0.0,0.0,90,0.00,CLR,CLR,0.00,WeatherDisplay:10.37,2013-05-05 03:27:00,
2013-05-04 23:32:00,49.4,46.6,30.97,ESE,104,0.0,1.0,90,0.00,CLR,CLR,0.00,WeatherDisplay:10.37,2013-05-05 03:32:00,
2013-05-04 23:37:00,49.3,46.5,30.97,ESE,104,0.0,0.0,90,0.00,CLR,CLR,0.00,WeatherDisplay:10.37,2013-05-05 03:37:00,
2013-05-04 23:42:00,49.2,46.4,30.97,ESE,104,0.0,0.0,90,0.00,CLR,CLR,0.00,WeatherDisplay:10.37,2013-05-05 03:42:00,
2013-05-04 23:47:00,49.2,46.7,30.97,ESE,104,0.0,0.0,91,0.00,CLR,CLR,0.00,WeatherDisplay:10.37,2013-05-05 03:47:00,
2013-05-04 23:52:00,49.2,46.7,30.97,ESE,104,0.0,0.0,91,0.00,CLR,CLR,0.00,WeatherDisplay:10.37,2013-05-05 03:52:00,
2013-05-04 23:57:00,49.2,46.7,30.97,ESE,104,0.0,0.0,91,0.00,CLR,CLR,0.00,WeatherDisplay:10.37,2013-05-05 03:57:00,